STARLINK-1575, 46349

Orbit data source: Space-Track

STARLINK-1575, 46349 is a payload satellite owned by SpaceX/Seattle (US) in LEO that was launched on Thu, 03 Sep 2020 UTC via an FALCON 9 launch vehicle from the Air Force Eastern Test Range (AFETR). Payload-class satellites include a variety of spacecraft equipped with specific instruments for various scientific and technological missions. These include communications satellites like Starlink; space stations such as the ISS; scientific satellites like the Hubble; Earth observation satellites from companies like Planet Labs, Umbra, and HawkEye 360; GPS; miniature CubeSats for education and research; and military/defense satellites.

Loading next visibility...
Identifier
46349, 2020-062AA
Orbit
LEO
Last TLE update
12 hours ago
Origin
Manufacturer
SpaceX/Seattle
Mission
Operational Commercial Communications
Bus & Motor
STARLINK, Unknown motor
Mass
260 kg wet, ~248 kg dry
Launch date (UTC)
2020-09-03 (5 years ago)
Launch vehicle
FALCON 9
Launch site
Air Force Eastern Test Range (AFETR)
Object type
Payload
Rocket body
Debris
Shape & HBR
Box + 1 Pan, 8.86 m
Radar Cross Section
13.562 m², Large (>1 m²)

Expand to show TLE details & history

TLE from 12 hours ago
0 STARLINK-1575
1 46349U 20062AA  25181.91668981  .01246870  00000-0  66378-1 0  9990
2 46349  53.0548  21.7896 0001001  86.8091 188.7461 15.12029275267172
Epoch: 2025-06-30T22:00Z
TLE epoch observation values (Epoch: 2025-06-30T22:00:01.999Z)
Latitude
-52.85189°
Longitude
51.7296°
Altitude
549.061 km
Speed
7.587 km/s
True Right ascension
20h 03m 49s
True Declination
-52° 40' 52"
Sunlit
Object was in full shadow at epoch
Visualization orbit readout
Latitude
-35.97792°
Longitude
-16.90889°
Altitude
538.25 km
Speed
7.593 km/s
Apparent Right ascension
13h 01m 04s
Apparent Declination
-45° 19' 35"
Sunlit
Object is in full shadow
Visualization observer readout
Local Sidereal Time
22:06:48
Azimuth
245.724° WSW
Elevation
-57.891°
Doppler factor
1
Orbital elements
Apogee altitude
530.975 km
Perigee altitude
529.592 km
Semi-major axis
6,908.421 km
Eccentricity
0.0001
Inclination
53.0548°
RAAN
21.7896°
Arg. of periapsis
86.8091°
True anomaly
Unknown
Mean anomaly
188.7461°
Eccentric anomaly
Unknown
Mean motion
3.77985 °/min
Orbital period
95.24 mins
BSTAR
0.066378
Loading maneuver chart data...
Loading SW <> Apogee altitude chart data...
Loading historical data...
Loading historical data...
Loading historical data...
Loading historical data...
Loading historical data...
Loading historical data...
Loading historical data...

STARLINK-1575 Visibility forecast

Observer location: undefined°, undefined°

Span
Click to sort rows by Start time (UTC) header in descending order
Start Az.
Max El. time (UTC)
Max El. Az.
Max El.
End time (UTC)
End Az.
7 mins2025-07-01 15:59:21.632Z223.844° SW2025-07-01 16:02:21.632Z181.169° SSW43.999°2025-07-01 16:06:21.632Z52.594° ENE
4 mins2025-07-01 17:40:21.632Z303.808° NW2025-07-01 17:42:21.632Z345.789° N20.074°2025-07-01 17:44:21.632Z21.076° NNE
6 mins2025-07-01 22:39:21.632Z315.402° NNW2025-07-01 22:42:21.632Z85.999° E42.65°2025-07-01 22:45:21.632Z123.48° SE
|